Location: Goettingen
(51.5300°N, 9.9433°E)
Time: 20:15:18
(UTC+02:00)

ISS - Pass Details

Date: 13 July 2019
Orbit: 409 x 418 km, 51.6° (Epoch: 20 July)

Event Time Altitude Azimuth Distance (km) Brightness Sun altitude
Exits shadow 02:24:27 20° 251° (WSW) 1,009 -2.1 -15.5°
Maximum altitude 02:26:35 77° 167° (SSE) 427 -3.9 -15.4°
Drops below altitude 10° 02:29:55 10° 81° (E) 1,481 -0.7 -15.2°
Sets 02:32:00 0° 80° (E) 2,342 0.4 -15.2°
